Wahpeton, MN

11:49 AM CST on November 22, 2019 (GMT -0600)
Stern

Weather History for KBWP - September, 2019

Change the Weather History Date:

Saturday, September 7, 2019

  Actual Average (KFFM) Record (KFFM)
Temperature  
Mean Temperature 52 °F -  
Max Temperature 57 °F 74 °F 96 °F (1978)
Min Temperature 48 °F 51 °F 39 °F (1956)
Degree Days  
Heating Degree Days 12    
Growing Degree Days 2 (Base 50)    
Moisture  
Dew Point 49 °F    
Average Humidity 88    
Maximum Humidity 94    
Minimum Humidity 77    
Precipitation  
Precipitation 0.00 in - - ()
Sea Level Pressure  
Sea Level Pressure 30.14 in    
Wind  
Wind Speed 2 mph ()    
Max Wind Speed 12 mph    
Max Gust Speed -    
Visibility 9.6 miles    
Events      
Averages and records for this station are not official NWS values.
T = Trace of Precipitation, MM = Missing Value Source: Averaged Metar Reports

Daily Weather History Graph

Daily Weather History Graph

Search for Another Location

Airport or City:

Astronomy

Sep. 07, 2019 Rise Set
Actual Time 6:54 AM CDT 7:53 PM CDT
Civil Twilight 6:23 AM CDT 8:24 PM CDT
Nautical Twilight 5:46 AM CDT 9:00 PM CDT
Astronomical Twilight 5:08 AM CDT 9:39 PM CDT
Moon 4:27 PM CDT (9/7) 12:31 AM CDT (9/7)
Length of Visible Light 14h 00m
Length of Day
12h 59m
Waxing Gibbous, 66% of the Moon is Illuminated
Sep 7
Waxing Gibbous
Sep 13
Full
Sep 21
Last Quarter
Sep 28
New
Oct 5
First Quarter

Hourly Weather History & Observations

Time (CDT) Temp. Dew Point Humidity Pressure Visibility Wind Dir Wind Speed Gust Speed Precip Events Conditions
12:15 AM 51.8 °F 48.2 °F 88% 30.14 in 10.0 mi Calm Calm - N/A   Unknown
12:35 AM 51.8 °F 48.2 °F 88% 30.14 in 10.0 mi Calm Calm - N/A   Unknown
12:55 AM 51.8 °F 46.4 °F 82% 30.14 in 10.0 mi Calm Calm - N/A   Unknown
1:15 AM 51.8 °F 46.4 °F 82% 30.14 in 10.0 mi Calm Calm - N/A   Unknown
1:35 AM 50.0 °F 46.4 °F 87% 30.15 in 10.0 mi Calm Calm - N/A   Unknown
1:55 AM 50.0 °F 46.4 °F 87% 30.14 in 10.0 mi Calm Calm - N/A   Unknown
2:15 AM 51.8 °F 46.4 °F 82% 30.14 in 10.0 mi Calm Calm - N/A   Unknown
2:35 AM 50.0 °F 48.2 °F 94% 30.15 in 10.0 mi Calm Calm - N/A   Unknown
2:55 AM 50.0 °F 48.2 °F 94% 30.15 in 4.0 mi Calm Calm - N/A   Unknown
3:15 AM 48.2 °F 46.4 °F 93% 30.15 in 10.0 mi Calm Calm - N/A   Unknown
3:35 AM 50.0 °F 46.4 °F 87% 30.16 in 3.0 mi Calm Calm - N/A   Unknown
3:55 AM 50.0 °F 46.4 °F 87% 30.15 in 5.0 mi Calm Calm - N/A   Unknown
4:15 AM 50.0 °F 46.4 °F 87% 30.14 in 7.0 mi Calm Calm - N/A   Unknown
4:35 AM 50.0 °F 46.4 °F 87% 30.14 in 10.0 mi Calm Calm - N/A   Unknown
4:55 AM 50.0 °F 46.4 °F 87% 30.13 in 10.0 mi Calm Calm - N/A   Unknown
5:15 AM 51.8 °F 48.2 °F 88% 30.13 in 10.0 mi Calm Calm - N/A   Unknown
5:35 AM 51.8 °F 48.2 °F 88% 30.13 in 10.0 mi Calm Calm - N/A   Unknown
5:55 AM 51.8 °F 50.0 °F 94% 30.13 in 10.0 mi Calm Calm - N/A   Unknown
6:15 AM 51.8 °F 50.0 °F 94% 30.13 in 10.0 mi Calm Calm - N/A   Unknown
6:35 AM 51.8 °F 48.2 °F 88% 30.13 in 10.0 mi Calm Calm - N/A   Unknown
7:15 AM 53.6 °F 50.0 °F 88% 30.13 in 10.0 mi Calm Calm - N/A   Unknown
7:35 AM 53.6 °F 50.0 °F 88% 30.13 in 10.0 mi Calm Calm - N/A   Unknown
9:35 AM 55.4 °F 50.0 °F 82% 30.13 in 10.0 mi NNE 11.5 mph - N/A   Unknown
9:55 AM 55.4 °F 50.0 °F 82% 30.13 in 10.0 mi NE 6.9 mph - N/A   Unknown
10:15 AM 55.4 °F 50.0 °F 82% 30.14 in 10.0 mi NNE 6.9 mph - N/A   Unknown
10:35 AM 55.4 °F 50.0 °F 82% 30.14 in 10.0 mi NE 5.8 mph - N/A   Unknown
10:55 AM 57.2 °F 50.0 °F 77% 30.15 in 10.0 mi NNE 6.9 mph - N/A   Unknown
11:15 AM 55.4 °F 50.0 °F 82% 30.15 in 10.0 mi NNE 5.8 mph - N/A   Unknown
11:35 AM 55.4 °F 50.0 °F 82% 30.16 in 10.0 mi North 5.8 mph - N/A   Unknown
11:55 AM 55.4 °F 50.0 °F 82% 30.16 in 10.0 mi North 5.8 mph - N/A   Unknown
12:15 PM 55.4 °F 50.0 °F 82% 30.16 in 10.0 mi North 8.1 mph - N/A   Unknown
12:35 PM 53.6 °F 50.0 °F 88% 30.16 in 10.0 mi North 8.1 mph - N/A   Unknown
12:55 PM 53.6 °F 50.0 °F 88% 30.16 in 10.0 mi North 6.9 mph - N/A   Unknown
1:15 PM 53.6 °F 51.8 °F 94% 30.15 in 10.0 mi North 5.8 mph - N/A   Unknown
1:35 PM 53.6 °F 50.0 °F 88% 30.15 in 10.0 mi North 6.9 mph - N/A   Unknown
1:55 PM 53.6 °F 50.0 °F 88% 30.15 in 10.0 mi NNE 6.9 mph - N/A   Unknown
2:15 PM 53.6 °F 50.0 °F 88% 30.15 in 10.0 mi NNE 6.9 mph - N/A   Unknown
2:35 PM 53.6 °F 50.0 °F 88% 30.14 in 10.0 mi North 8.1 mph - N/A   Unknown
2:55 PM 53.6 °F 50.0 °F 88% 30.14 in 10.0 mi NNE 9.2 mph - N/A   Unknown
3:15 PM 51.8 °F 50.0 °F 94% 30.13 in 10.0 mi NNE 10.4 mph - N/A   Unknown
3:35 PM 51.8 °F 50.0 °F 94% 30.12 in 10.0 mi NNE 10.4 mph - N/A   Unknown
3:55 PM 51.8 °F 48.2 °F 88% 30.11 in 10.0 mi NNE 10.4 mph - N/A   Unknown
4:15 PM 51.8 °F 48.2 °F 88% 30.11 in 10.0 mi NE 6.9 mph - N/A   Unknown
4:35 PM 51.8 °F 46.4 °F 82% 30.11 in 10.0 mi NE 5.8 mph - N/A   Unknown
4:55 PM 51.8 °F 48.2 °F 88% 30.11 in 10.0 mi NNE 5.8 mph - N/A   Unknown
5:15 PM 53.6 °F 48.2 °F 82% 30.10 in 10.0 mi NE 4.6 mph - N/A   Unknown
5:35 PM 53.6 °F 48.2 °F 82% 30.10 in 10.0 mi NE 3.5 mph - N/A   Unknown
5:55 PM 51.8 °F 46.4 °F 82% 30.11 in 10.0 mi NE 3.5 mph - N/A   Unknown
6:15 PM 51.8 °F 46.4 °F 82% 30.11 in 10.0 mi Calm Calm - N/A   Unknown
6:35 PM 51.8 °F 48.2 °F 88% 30.11 in 10.0 mi Calm Calm - N/A   Unknown
6:55 PM 53.6 °F 50.0 °F 88% 30.11 in 10.0 mi NNE 3.5 mph - N/A   Unknown
7:15 PM 53.6 °F 50.0 °F 88% 30.11 in 10.0 mi NE 3.5 mph - N/A   Unknown
7:35 PM 53.6 °F 50.0 °F 88% 30.12 in 10.0 mi Calm Calm - N/A   Unknown
7:55 PM 53.6 °F 50.0 °F 88% 30.12 in 10.0 mi NE 5.8 mph - N/A   Unknown
8:15 PM 51.8 °F 50.0 °F 94% 30.13 in 10.0 mi ENE 3.5 mph - N/A   Unknown
8:35 PM 51.8 °F 50.0 °F 94% 30.13 in 7.0 mi East 4.6 mph - N/A   Unknown
8:55 PM 51.8 °F 50.0 °F 94% 30.13 in 10.0 mi ENE 5.8 mph - N/A   Unknown
9:15 PM 51.8 °F 50.0 °F 94% 30.14 in 10.0 mi ENE 4.6 mph - N/A   Unknown
10:15 PM 51.8 °F 50.0 °F 94% 30.15 in 10.0 mi ENE 4.6 mph - N/A   Unknown
10:35 PM 51.8 °F 50.0 °F 94% 30.16 in 10.0 mi East 4.6 mph - N/A   Unknown
10:55 PM 51.8 °F 48.2 °F 88% 30.16 in 10.0 mi ENE 4.6 mph - N/A   Unknown
11:15 PM 51.8 °F 48.2 °F 88% 30.15 in 10.0 mi ENE 5.8 mph - N/A   Unknown
11:35 PM 51.8 °F 48.2 °F 88% 30.14 in 10.0 mi ENE 5.8 mph - N/A   Unknown
11:55 PM 51.8 °F 48.2 °F 88% 30.14 in 7.0 mi ENE 6.9 mph - N/A   Unknown